Flag for Norway Weather past 2 weeks in Sandefjord, Norway

46 °F

Partly sunny.

Feels Like: 42 °F
Forecast: 46 / 50 °F
Wind: 8 mph from Northeast

Location: Torp

Current Time: Oct 7, 2015 at 1:00:00 PM

Latest Report: Oct 7, 2015 at 12:20 PM

Visibility: N/A

Pressure: 30.24 "Hg

Humidity: 82%

Dew point: 41 °F

Location of SandefjordLocation

Historic Weather in Sandefjord — Graph


Sandefjord temperature yesterday

Maximum temperature yesterday: 52 °F (at 2:50 PM)
Minimum temperature yesterday: 46 °F (at 7:50 AM)
Average temperature yesterday: 49 °F

Past Weeks' High & Low Weather Summary

High64 °F (Sep 30, 2:20 PM)100% (Sep 22, 11:20 AM)30.72 "Hg (Sep 22, 11:20 AM)
Low39 °F (Oct 4, 3:50 AM)39% (Sep 27, 3:50 PM)29.62 "Hg (Sep 22, 1:50 PM)
Average52 °F81%30.13 "Hg
* Reported Sep 22 11:20 AM — Oct 7 11:50 AM, Sandefjord, Weather by CustomWeather, © 2015

Note: Actual official high and low records may vary slightly from our data, if they occured in-between our weather recording intervals... More about our weather records


Sandefjord weather history for previous 24 hours

Time TempWeatherWind HumidityBarometerVisibility
11:50 AM
Wed, Oct 7
45 °FPartly sunny.8 mph87%30.24 "HgN/A
11:20 AM45 °FPartly sunny.8 mph87%30.24 "HgN/A
10:50 AM45 °FScattered clouds.9 mph87%30.24 "HgN/A
10:20 AM43 °FScattered clouds.9 mph87%30.21 "HgN/A
9:50 AM43 °FScattered clouds.9 mph93%30.21 "HgN/A
9:20 AM43 °FScattered clouds.9 mph87%30.21 "HgN/A
8:50 AM43 °FScattered clouds.10 mph87%30.21 "HgN/A
8:20 AM43 °FPassing clouds.9 mph87%30.21 "HgN/A
7:50 AM43 °FPassing clouds.10 mph87%30.21 "HgN/A
7:20 AM43 °FPassing clouds.9 mph87%30.21 "HgN/A
6:50 AM43 °FPassing clouds.10 mph87%30.21 "HgN/A
6:20 AM43 °FPassing clouds.9 mph87%30.21 "HgN/A
5:50 AM45 °FPassing clouds.9 mph81%30.21 "HgN/A
5:20 AM45 °FOvercast.8 mph81%30.21 "HgN/A
4:50 AM45 °FOvercast.8 mph81%30.21 "HgN/A
4:20 AM45 °FPassing clouds.7 mph81%30.21 "HgN/A
3:50 AM45 °FPassing clouds.7 mph81%30.21 "HgN/A
3:20 AM45 °FPassing clouds.7 mph76%30.21 "HgN/A
2:50 AM45 °FPassing clouds.8 mph76%30.21 "HgN/A
2:20 AM45 °FPassing clouds.8 mph76%30.21 "HgN/A
1:50 AM45 °FPassing clouds.8 mph76%30.21 "HgN/A
1:20 AM46 °FPassing clouds.7 mph66%30.21 "HgN/A
12:50 AM46 °FPartly cloudy.8 mph66%30.21 "HgN/A
11:50 PM
Tue, Oct 6
46 °FPassing clouds.10 mph66%30.21 "HgN/A
11:20 PM46 °FPassing clouds.8 mph66%30.21 "HgN/A
10:50 PM48 °FPassing clouds.9 mph58%30.21 "HgN/A
10:20 PM48 °FPassing clouds.5 mph66%30.21 "HgN/A
9:50 PM48 °FPartly cloudy.6 mph71%30.18 "HgN/A
9:20 PM48 °FPartly cloudy.8 mph76%30.18 "HgN/A
8:50 PM48 °FPartly cloudy.10 mph71%30.18 "HgN/A
8:20 PM50 °FMostly cloudy.10 mph67%30.18 "HgN/A
7:50 PM50 °FMostly cloudy.10 mph67%30.18 "HgN/A
7:20 PM50 °FPartly sunny.9 mph67%30.15 "HgN/A
6:50 PM50 °FPartly sunny.9 mph67%30.15 "HgN/A
6:20 PM50 °FOvercast.10 mph67%30.15 "HgN/A
5:50 PM50 °FPartly sunny.12 mph67%30.15 "HgN/A
5:20 PM50 °FPartly sunny.9 mph67%30.15 "HgN/A
4:50 PM50 °FPartly sunny.10 mph67%30.15 "HgN/A
4:20 PM50 °FPartly sunny.10 mph67%30.15 "HgN/A
3:50 PM50 °FPassing clouds.10 mph67%30.15 "HgN/A
3:20 PM50 °FPartly sunny.10 mph71%30.15 "HgN/A
2:50 PM52 °FPartly sunny.10 mph67%30.15 "HgN/A
2:20 PM50 °FPartly sunny.12 mph67%30.18 "HgN/A
1:50 PM50 °FPartly sunny.12 mph71%30.18 "HgN/A
1:20 PM48 °FScattered clouds.10 mph76%30.18 "HgN/A
Weather by CustomWeather, © 2015

See weather overviewHow to use our weather pages